Location: ???????
(55.8930°N, 38.0586°E)
Time: 12:29:48
(UTC+00:00)

Cosmos 2056 Rocket - Pass Details

Date: 14 April 2024
Orbit: 739 x 799 km, 74.0° (Epoch: 27 May)

Event Time Altitude Azimuth Distance (km) Brightness Sun altitude
Rises 00:31:25 0° 331° (NNW) 3,280 7.0 -14.4°
Reaches altitude 10° 00:33:48 10° 333° (NNW) 2,357 6.2 -14.1°
Maximum altitude 00:39:11 77° 60° (ENE) 819 3.8 -13.6°
Drops below altitude 10° 00:44:36 10° 147° (SSE) 2,368 6.0 -13.0°
Sets 00:47:00 0° 149° (SSE) 3,296 6.7 -12.7°
